When you browse on this site, cookies collect data to enhance your experience and personalize the content and advertising you see.
Visit our Privacy Policy to learn more. By continuing to use the site, you agree to this use of cookies and data.

Stündliche Wetter Athen

Heute, 11 August, Dienstag

Zeit Temperatur Niederschläge Wind Luftdruck Luftfeuchtigkeit
00:00 +27°C° 0 mm 3 m/S 751 mmHg 44%
01:00 +27°C° 0 mm 3 m/S 751 mmHg 44%
02:00 +27°C° 0 mm 3 m/S 751 mmHg 45%
03:00 +27°C° 0 mm 3 m/S 751 mmHg 47%
04:00 +26°C° 0 mm 3 m/S 751 mmHg 48%
05:00 +26°C° 0 mm 3 m/S 751 mmHg 50%
06:00 +27°C° 0 mm 3 m/S 751 mmHg 48%
07:00 +28°C° 0 mm 4 m/S 751 mmHg 46%
08:00 +29°C° 0 mm 4 m/S 751 mmHg 44%
09:00 +30°C° 0 mm 5 m/S 751 mmHg 40%
10:00 +32°C° 0 mm 6 m/S 752 mmHg 36%
11:00 +34°C° 0 mm 7 m/S 752 mmHg 33%
12:00 +34°C° 0 mm 7 m/S 752 mmHg 32%
13:00 +34°C° 0 mm 7 m/S 752 mmHg 31%
14:00 +34°C° 0 mm 7 m/S 752 mmHg 31%
15:00 +34°C° 0 mm 7 m/S 752 mmHg 31%
16:00 +34°C° 0 mm 7 m/S 751 mmHg 31%
17:00 +34°C° 0 mm 7 m/S 751 mmHg 31%
18:00 +33°C° 0 mm 5 m/S 751 mmHg 33%
19:00 +32°C° 0 mm 4 m/S 751 mmHg 35%
20:00 +30°C° 0 mm 3 m/S 751 mmHg 37%
21:00 +29°C° 0 mm 3 m/S 751 mmHg 38%
22:00 +29°C° 0 mm 3 m/S 751 mmHg 38%
23:00 +29°C° 0 mm 3 m/S 751 mmHg 39%

Morgen, 12 August, Mittwoch

Zeit Temperatur Niederschläge Wind Luftdruck Luftfeuchtigkeit
00:00 +28°C° 0 mm 3 m/S 751 mmHg 39%
01:00 +28°C° 0 mm 3 m/S 750 mmHg 40%
02:00 +28°C° 0 mm 3 m/S 750 mmHg 41%
03:00 +28°C° 0 mm 3 m/S 750 mmHg 41%
04:00 +27°C° 0 mm 3 m/S 750 mmHg 42%
05:00 +27°C° 0 mm 3 m/S 750 mmHg 43%
06:00 +28°C° 0 mm 3 m/S 750 mmHg 41%
07:00 +29°C° 0 mm 3 m/S 750 mmHg 40%
08:00 +32°C° 0 mm 4 m/S 750 mmHg 38%
09:00 +33°C° 0 mm 4 m/S 750 mmHg 36%
10:00 +34°C° 0 mm 5 m/S 751 mmHg 35%
11:00 +35°C° 0 mm 5 m/S 751 mmHg 33%
12:00 +35°C° 0 mm 5 m/S 751 mmHg 32%
13:00 +36°C° 0 mm 5 m/S 751 mmHg 31%
14:00 +36°C° 0 mm 5 m/S 750 mmHg 30%
15:00 +36°C° 0 mm 5 m/S 750 mmHg 30%
16:00 +36°C° 0 mm 5 m/S 750 mmHg 30%
17:00 +35°C° 0 mm 5 m/S 750 mmHg 30%
18:00 +34°C° 0 mm 4 m/S 750 mmHg 33%
19:00 +33°C° 0 mm 3 m/S 750 mmHg 36%
20:00 +31°C° 0 mm 2 m/S 750 mmHg 38%
21:00 +31°C° 0 mm 2 m/S 750 mmHg 39%
22:00 +30°C° 0 mm 3 m/S 750 mmHg 39%
23:00 +30°C° 0 mm 3 m/S 750 mmHg 40%

übermorgen, 13 August, Donnerstag

Zeit Temperatur Niederschläge Wind Luftdruck Luftfeuchtigkeit
00:00 +29°C° 0 mm 3 m/S 750 mmHg 41%
01:00 +29°C° 0 mm 3 m/S 750 mmHg 42%
02:00 +29°C° 0 mm 3 m/S 750 mmHg 43%
03:00 +28°C° 0 mm 3 m/S 750 mmHg 44%
04:00 +28°C° 0 mm 3 m/S 749 mmHg 44%
05:00 +28°C° 0 mm 3 m/S 749 mmHg 45%
06:00 +29°C° 0 mm 3 m/S 750 mmHg 44%
07:00 +30°C° 0 mm 4 m/S 750 mmHg 43%
08:00 +30°C° 0 mm 4 m/S 750 mmHg 42%
09:00 +32°C° 0 mm 5 m/S 751 mmHg 41%
10:00 +33°C° 0 mm 5 m/S 751 mmHg 41%
11:00 +34°C° 0 mm 6 m/S 751 mmHg 40%
12:00 +34°C° 0 mm 6 m/S 751 mmHg 38%
13:00 +34°C° 0 mm 7 m/S 751 mmHg 37%
14:00 +35°C° 0 mm 7 m/S 751 mmHg 35%
15:00 +34°C° 0 mm 7 m/S 751 mmHg 36%
16:00 +34°C° 0 mm 7 m/S 751 mmHg 36%
17:00 +34°C° 0 mm 7 m/S 750 mmHg 36%
18:00 +33°C° 0 mm 6 m/S 750 mmHg 39%
19:00 +32°C° 0 mm 5 m/S 751 mmHg 41%
20:00 +30°C° 0 mm 4 m/S 751 mmHg 44%
21:00 +29°C° 0 mm 4 m/S 751 mmHg 46%
22:00 +28°C° 0 mm 4 m/S 751 mmHg 47%
23:00 +28°C° 0 mm 4 m/S 751 mmHg 49%

14 August, Freitag

Zeit Temperatur Niederschläge Wind Luftdruck Luftfeuchtigkeit
00:00 +28°C° 0 mm 4 m/S 751 mmHg 50%
01:00 +27°C° 0 mm 4 m/S 751 mmHg 51%
02:00 +27°C° 0 mm 4 m/S 751 mmHg 52%
03:00 +27°C° 0 mm 4 m/S 750 mmHg 54%
04:00 +26°C° 0 mm 4 m/S 750 mmHg 57%
05:00 +26°C° 0 mm 4 m/S 750 mmHg 59%
06:00 +27°C° 0 mm 5 m/S 750 mmHg 57%
07:00 +27°C° 0 mm 5 m/S 751 mmHg 55%
08:00 +28°C° 0 mm 6 m/S 751 mmHg 53%
09:00 +29°C° 0 mm 7 m/S 751 mmHg 49%
10:00 +30°C° 0 mm 7 m/S 751 mmHg 44%
11:00 +32°C° 0 mm 8 m/S 751 mmHg 40%
12:00 +33°C° 0 mm 8 m/S 751 mmHg 38%
13:00 +33°C° 0 mm 8 m/S 751 mmHg 36%
14:00 +33°C° 0 mm 9 m/S 751 mmHg 34%
15:00 +33°C° 0 mm 8 m/S 750 mmHg 33%
16:00 +33°C° 0 mm 8 m/S 750 mmHg 33%
17:00 +33°C° 0 mm 8 m/S 750 mmHg 33%
18:00 +32°C° 0 mm 7 m/S 750 mmHg 35%
19:00 +30°C° 0 mm 5 m/S 750 mmHg 38%
20:00 +28°C° 0 mm 4 m/S 750 mmHg 40%
21:00 +28°C° 0 mm 4 m/S 750 mmHg 41%
22:00 +28°C° 0 mm 4 m/S 750 mmHg 42%
23:00 +27°C° 0 mm 4 m/S 750 mmHg 43%

15 August, Samstag

Zeit Temperatur Niederschläge Wind Luftdruck Luftfeuchtigkeit
00:00 +27°C° 0 mm 4 m/S 750 mmHg 44%
01:00 +26°C° 0 mm 4 m/S 750 mmHg 44%
02:00 +26°C° 0 mm 4 m/S 750 mmHg 45%
03:00 +26°C° 0 mm 4 m/S 750 mmHg 47%
04:00 +26°C° 0 mm 4 m/S 749 mmHg 50%
05:00 +25°C° 0 mm 4 m/S 749 mmHg 52%
06:00 +26°C° 0 mm 5 m/S 749 mmHg 50%
07:00 +27°C° 0 mm 5 m/S 750 mmHg 49%
08:00 +28°C° 0 mm 5 m/S 750 mmHg 47%
09:00 +29°C° 0 mm 6 m/S 750 mmHg 44%
10:00 +30°C° 0 mm 6 m/S 750 mmHg 41%
11:00 +32°C° 0 mm 7 m/S 750 mmHg 38%
12:00 +33°C° 0 mm 7 m/S 750 mmHg 37%
13:00 +33°C° 0 mm 7 m/S 750 mmHg 36%
14:00 +34°C° 0 mm 7 m/S 750 mmHg 34%
15:00 +34°C° 0 mm 7 m/S 749 mmHg 34%
16:00 +33°C° 0 mm 7 m/S 749 mmHg 34%
17:00 +33°C° 0 mm 7 m/S 748 mmHg 33%
18:00 +32°C° 0 mm 6 m/S 748 mmHg 35%
19:00 +30°C° 0 mm 5 m/S 748 mmHg 37%
20:00 +29°C° 0 mm 3 m/S 748 mmHg 39%
21:00 +28°C° 0 mm 3 m/S 748 mmHg 40%
22:00 +28°C° 0 mm 3 m/S 748 mmHg 41%
23:00 +27°C° 0 mm 3 m/S 748 mmHg 41%

16 August, Sonntag

Zeit Temperatur Niederschläge Wind Luftdruck Luftfeuchtigkeit
00:00 +27°C° 0 mm 3 m/S 748 mmHg 42%
01:00 +27°C° 0 mm 3 m/S 748 mmHg 42%
02:00 +27°C° 0 mm 3 m/S 748 mmHg 43%
03:00 +26°C° 0 mm 3 m/S 747 mmHg 44%
04:00 +26°C° 0 mm 3 m/S 747 mmHg 45%
05:00 +26°C° 0 mm 3 m/S 747 mmHg 46%
06:00 +27°C° 0 mm 3 m/S 747 mmHg 45%
07:00 +28°C° 0 mm 3 m/S 747 mmHg 43%
08:00 +29°C° 0 mm 3 m/S 747 mmHg 42%
09:00 +30°C° 0 mm 3 m/S 747 mmHg 39%
10:00 +32°C° 0 mm 4 m/S 748 mmHg 37%
11:00 +33°C° 0 mm 4 m/S 748 mmHg 35%
12:00 +34°C° 0 mm 4 m/S 748 mmHg 35%
13:00 +34°C° 0 mm 4 m/S 748 mmHg 35%
14:00 +35°C° 0 mm 4 m/S 747 mmHg 34%
15:00 +35°C° 0 mm 4 m/S 747 mmHg 35%
16:00 +34°C° 0 mm 4 m/S 747 mmHg 36%
17:00 +34°C° 0 mm 4 m/S 747 mmHg 37%
18:00 +33°C° 0 mm 3 m/S 747 mmHg 40%
19:00 +31°C° 0 mm 2 m/S 747 mmHg 43%
20:00 +30°C° 0 mm 2 m/S 747 mmHg 46%
21:00 +29°C° 0 mm 2 m/S 747 mmHg 48%
22:00 +29°C° 0 mm 1 m/S 747 mmHg 49%
23:00 +28°C° 0 mm 1 m/S 748 mmHg 50%
Mehr zeigen